| time (UTC) | temp F | wind direction | speed MPH | gust MPH | rain 1hr in | rain 24hr in | rain mn in | humidity % | barometer mb |
| 20260901150112 | 65 | 182 | 0.0 | 1.0 | 0.00 | 0.00 | 0.00 | 14 | 1007.9 |
| 20260901144557 | 65 | 171 | 0.0 | 4.0 | 0.00 | 0.00 | 0.00 | 12 | 1008.0 |
| 20260901143110 | 65 | 259 | 0.0 | 3.0 | 0.00 | 0.00 | 0.00 | 11 | 1008.0 |
| 20260901141546 | 65 | 107 | 0.0 | 3.0 | 0.00 | 0.00 | 0.00 | 21 | 1008.0 |
| 20260901140123 | 66 | 279 | 0.0 | 7.0 | 0.00 | 0.00 | 0.00 | 27 | 1008.1 |
| 20260901134538 | 66 | 317 | 0.0 | 4.0 | 0.00 | 0.00 | 0.00 | 30 | 1008.2 |
| 20260901133033 | 66 | 329 | 0.0 | 3.0 | 0.00 | 0.00 | 0.00 | 23 | 1008.1 |
| 20260901131537 | 66 | 276 | 0.0 | 5.0 | 0.00 | 0.00 | 0.00 | 18 | 1008.0 |
| 20260901130024 | 65 | 227 | 0.0 | 4.0 | 0.00 | 0.00 | 0.00 | 26 | 1008.1 |
| 20260901124521 | 65 | 98 | 0.0 | 8.0 | 0.00 | 0.00 | 0.00 | 21 | 1008.2 |
| 20260901123017 | 65 | 348 | 1.0 | 10.0 | 0.00 | 0.00 | 0.00 | 24 | 1008.4 |
| 20260901121512 | 65 | 248 | 1.0 | 9.0 | 0.00 | 0.00 | 0.00 | 10 | 1008.5 |
| 20260901120015 | 65 | 101 | 1.0 | 8.0 | 0.00 | 0.00 | 0.00 | 11 | 1008.6 |
| 20260901114501 | 65 | 27 | 0.0 | 10.0 | 0.00 | 0.02 | 0.00 | 12 | 1008.6 |
| 20260901113103 | 65 | 38 | 2.0 | 8.0 | 0.00 | 0.02 | 0.00 | 8 | 1008.7 |
| 20260901111554 | 65 | 311 | 0.0 | 6.0 | 0.00 | 0.02 | 0.00 | 1 | 1008.6 |
| 20260901110050 | 65 | 304 | 0.0 | 3.0 | 0.00 | 0.02 | 0.00 | 1 | 1008.6 |
| 20260901104546 | 64 | 70 | 0.0 | 3.0 | 0.00 | 0.03 | 0.00 | 1 | 1008.7 |
| 20260901103040 | 64 | 311 | 0.0 | 4.0 | 0.00 | 0.03 | 0.00 | 1 | 1008.7 |
| 20260901101554 | 64 | 323 | 0.0 | 1.0 | 0.00 | 0.03 | 0.00 | 1 | 1008.6 |
| 20260901100032 | 64 | 19 | 0.0 | 9.0 | 0.00 | 0.03 | 0.00 | 1 | 1008.5 |
| 20260901094537 | 64 | 285 | 0.0 | 8.0 | 0.00 | 0.04 | 0.00 | 1 | 1008.4 |
| 20260901093021 | 64 | 315 | 0.0 | 3.0 | 0.00 | 0.04 | 0.00 | 1 | 1008.3 |
| 20260901091520 | 64 | 254 | 0.0 | 6.0 | 0.00 | 0.04 | 0.00 | 1 | 1008.3 |
| 20260901090013 | 65 | 290 | 1.0 | 8.0 | 0.00 | 0.04 | 0.00 | 1 | 1008.2 |
| 20260901084509 | 65 | 88 | 0.0 | 0.0 | 0.00 | 0.04 | 0.00 | 1 | 1008.3 |
| 20260901083004 | 65 | 277 | 0.0 | 4.0 | 0.00 | 0.04 | 0.00 | 1 | 1008.2 |
| 20260901081603 | 65 | 323 | 0.0 | 3.0 | 0.00 | 0.04 | 0.00 | 1 | 1008.2 |
| 20260901080152 | 64 | 59 | 0.0 | 4.0 | 0.00 | 0.04 | 0.00 | 1 | 1008.1 |
| 20260901074553 | 64 | 57 | 0.0 | 3.0 | 0.00 | 0.11 | 0.00 | 1 | 1008.2 |
| 20260901073049 | 63 | 95 | 0.0 | 4.0 | 0.00 | 0.11 | 0.00 | 1 | 1008.1 |
| 20260901071544 | 63 | 138 | 0.0 | 2.0 | 0.00 | 0.11 | 0.00 | 1 | 1008.1 |
| 20260901070039 | 62 | 308 | 0.0 | 2.0 | 0.00 | 0.11 | 0.00 | 1 | 1008.1 |
| 20260901064535 | 62 | 286 | 0.0 | 2.0 | 0.00 | 0.20 | 0.00 | 1 | 1008.0 |
| 20260901063040 | 61 | 342 | 0.0 | 1.0 | 0.00 | 0.20 | 0.00 | 1 | 1008.0 |
| 20260901061526 | 61 | 340 | 0.0 | 3.0 | 0.00 | 0.20 | 0.00 | 1 | 1008.0 |
| 20260901060022 | 61 | 29 | 0.0 | 2.0 | 0.00 | 0.20 | 0.00 | 1 | 1008.1 |
| 20260901054518 | 60 | 298 | 0.0 | 1.0 | 0.00 | 0.28 | 0.00 | 1 | 1008.0 |
| 20260901053012 | 60 | 283 | 0.0 | 2.0 | 0.00 | 0.28 | 0.00 | 1 | 1008.1 |
| 20260901051509 | 60 | 283 | 0.0 | 0.0 | 0.00 | 0.28 | 0.00 | 1 | 1008.0 |
| 20260901050005 | 59 | 283 | 0.0 | 0.0 | 0.00 | 0.28 | 0.00 | 1 | 1008.0 |
| 20260901044501 | 59 | 283 | 0.0 | 0.0 | 0.00 | 0.28 | 0.00 | 1 | 1008.0 |
| 20260901043057 | 59 | 283 | 0.0 | 1.0 | 0.00 | 0.28 | 0.00 | 1 | 1008.0 |
| 20260901041552 | 59 | 283 | 0.0 | 0.0 | 0.00 | 0.28 | 0.00 | 1 | 1008.0 |
| 20260901040058 | 58 | 283 | 0.0 | 0.0 | 0.00 | 0.28 | 0.00 | 1 | 1008.1 |
| 20260901034543 | 58 | 283 | 0.0 | 0.0 | 0.00 | 0.28 | 0.00 | 1 | 1008.1 |
| 20260901033040 | 58 | 283 | 0.0 | 0.0 | 0.00 | 0.28 | 0.00 | 1 | 1008.0 |
| 20260901031535 | 58 | 283 | 0.0 | 0.0 | 0.00 | 0.28 | 0.00 | 1 | 1007.9 |
| 20260901030034 | 58 | 283 | 0.0 | 0.0 | 0.00 | 0.28 | 0.00 | 1 | 1007.8 |
| 20260901024531 | 58 | 283 | 0.0 | 2.0 | 0.00 | 0.30 | 0.00 | 1 | 1007.8 |
| 20260901023021 | 58 | 282 | 0.0 | 3.0 | 0.00 | 0.30 | 0.00 | 1 | 1007.8 |
| 20260901021517 | 58 | 28 | 0.0 | 1.0 | 0.00 | 0.30 | 0.00 | 1 | 1007.8 |
| 20260901020013 | 58 | 283 | 0.0 | 3.0 | 0.00 | 0.30 | 0.00 | 1 | 1007.8 |
| 20260901014508 | 59 | 309 | 0.0 | 0.0 | 0.00 | 0.30 | 0.00 | 1 | 1007.7 |
| 20260901013006 | 59 | 309 | 0.0 | 0.0 | 0.00 | 0.30 | 0.00 | 1 | 1007.7 |
| 20260901011600 | 59 | 309 | 0.0 | 0.0 | 0.00 | 0.30 | 0.00 | 1 | 1007.7 |
| 20260901010055 | 59 | 308 | 0.0 | 0.0 | 0.00 | 0.30 | 0.00 | 1 | 1007.7 |
| 20260901004551 | 59 | 288 | 0.0 | 4.0 | 0.00 | 0.31 | 0.00 | 1 | 1007.7 |
| 20260901003046 | 59 | 343 | 0.0 | 3.0 | 0.00 | 0.31 | 0.00 | 1 | 1007.8 |
| 20260901001546 | 59 | 302 | 0.0 | 1.0 | 0.00 | 0.31 | 0.00 | 1 | 1007.8 |
| 20260901000049 | 59 | 302 | 0.0 | 2.0 | 0.00 | 0.31 | 0.00 | 1 | 1007.9 |
| 20260831234545 | 60 | 294 | 0.0 | 7.0 | 0.00 | 0.33 | 0.00 | 1 | 1007.9 |
| 20260831233040 | 59 | 251 | 0.0 | 4.0 | 0.00 | 0.33 | 0.00 | 1 | 1007.9 |
| 20260831231554 | 60 | 330 | 0.0 | 2.0 | 0.00 | 0.33 | 0.00 | 1 | 1008.0 |
| 20260831230033 | 60 | 295 | 0.0 | 2.0 | 0.00 | 0.33 | 0.00 | 1 | 1007.9 |
| 20260831224546 | 60 | 299 | 0.0 | 2.0 | 0.00 | 0.33 | 0.00 | 1 | 1008.0 |
| 20260831223023 | 60 | 163 | 0.0 | 2.0 | 0.00 | 0.33 | 0.00 | 1 | 1007.9 |
| 20260831221518 | 60 | 313 | 0.0 | 2.0 | 0.00 | 0.33 | 0.00 | 1 | 1007.8 |
| 20260831220014 | 60 | 279 | 0.0 | 2.0 | 0.00 | 0.33 | 0.00 | 1 | 1007.9 |
| 20260831214510 | 60 | 286 | 0.0 | 4.0 | 0.00 | 0.33 | 0.00 | 1 | 1007.8 |
| 20260831213005 | 60 | 279 | 0.0 | 2.0 | 0.00 | 0.33 | 0.00 | 1 | 1007.8 |
| 20260831211501 | 60 | 86 | 0.0 | 3.0 | 0.00 | 0.33 | 0.00 | 1 | 1007.7 |
| 20260831204559 | 60 | 286 | 0.0 | 2.0 | 0.00 | 0.33 | 0.33 | 1 | 1007.6 |
| 20260831203056 | 60 | 355 | 0.0 | 2.0 | 0.00 | 0.33 | 0.33 | 1 | 1007.5 |
| 20260831201558 | 60 | 296 | 0.0 | 5.0 | 0.00 | 0.33 | 0.33 | 1 | 1007.3 |
| 20260831200054 | 61 | 288 | 0.0 | 3.0 | 0.00 | 0.33 | 0.33 | 1 | 1007.3 |
| 20260831194600 | 61 | 97 | 0.0 | 10.0 | 0.00 | 0.33 | 0.33 | 1 | 1007.2 |
| 20260831193058 | 61 | 340 | 0.0 | 5.0 | 0.00 | 0.33 | 0.33 | 1 | 1007.2 |
| 20260831191553 | 61 | 300 | 0.0 | 7.0 | 0.00 | 0.33 | 0.33 | 1 | 1007.1 |
| 20260831190053 | 61 | 22 | 0.0 | 7.0 | 0.00 | 0.33 | 0.33 | 1 | 1007.0 |
| 20260831184551 | 61 | 293 | 1.0 | 5.0 | 0.00 | 0.33 | 0.33 | 1 | 1007.0 |
| 20260831183051 | 61 | 284 | 0.0 | 3.0 | 0.00 | 0.33 | 0.33 | 1 | 1007.1 |
| 20260831181551 | 61 | 331 | 0.0 | 10.0 | 0.00 | 0.33 | 0.33 | 1 | 1006.9 |
| 20260831180051 | 61 | 215 | 0.0 | 5.0 | 0.00 | 0.33 | 0.33 | 1 | 1006.8 |
| 20260831174550 | 61 | 290 | 1.0 | 6.0 | 0.00 | 0.33 | 0.33 | 1 | 1006.8 |
| 20260831173049 | 61 | 240 | 0.0 | 6.0 | 0.00 | 0.33 | 0.33 | 1 | 1006.6 |
| 20260831171546 | 61 | 240 | 1.0 | 7.0 | 0.00 | 0.33 | 0.33 | 1 | 1006.6 |
| 20260831170042 | 62 | 207 | 1.0 | 6.0 | 0.00 | 0.33 | 0.33 | 1 | 1006.4 |
| 20260831164537 | 62 | 29 | 0.0 | 5.0 | 0.00 | 0.33 | 0.33 | 1 | 1006.4 |
| 20260831163035 | 62 | 173 | 0.0 | 4.0 | 0.00 | 0.33 | 0.33 | 1 | 1006.3 |
| 20260831161532 | 62 | 279 | 0.0 | 7.0 | 0.00 | 0.33 | 0.33 | 1 | 1006.2 |
| 20260831160030 | 62 | 139 | 0.0 | 5.0 | 0.00 | 0.33 | 0.33 | 1 | 1006.1 |
| 20260831154531 | 62 | 331 | 1.0 | 11.0 | 0.00 | 0.33 | 0.33 | 1 | 1005.9 |
| 20260831153018 | 62 | 292 | 0.0 | 9.0 | 0.00 | 0.33 | 0.33 | 1 | 1005.9 |
| 20260831151511 | 62 | 350 | 0.0 | 9.0 | 0.00 | 0.33 | 0.33 | 1 | 1006.0 |